Preview of NWS' New Version of Forecast
This preview is not operational and should not be used for support decisions.

Regional Weather Roundup (RWR)

Issued by National Weather Service (NWS)

                            
000
ASUS45 KCYS 201210
RWRWY 

WYOMING REGIONAL WEATHER ROUNDUP
NATIONAL WEATHER SERVICE CHEYENNE WY
600 AM MDT SAT APR 20 2019

NOTE:  "FAIR" INDICATES FEW OR NO CLOUDS BELOW 12,000 FEET
WITH NO SIGNIFICANT WEATHER AND/OR OBSTRUCTIONS TO VISIBILITY.

WYZ001-201300-
...YELLOWSTONE NATIONAL PARK...
  
CITY           SKY/WX    TMP DP  RH WIND       PRES   REMARKS
LK YELLOWSTONE   N/A     29  26  89 W3        29.98F                  
6HR MIN TEMP:  28; 6HR MAX TEMP:  32;                                

W YELLOWSTONE  NOT AVBL                                               

$$
WYZ002>013-054>058-071-098>099-201300-
...NORTHERN WYOMING...
  
CITY           SKY/WX    TMP DP  RH WIND       PRES   REMARKS
JACKSON        MOCLDY    34  28  79 NE7       29.93F WCI  28          
CODY           CLOUDY    58  30  34 W7        29.82S                  
GREYBULL       CLOUDY    50  31  48 SE6       29.77F                  
6HR MIN TEMP:  49; 6HR MAX TEMP:  58;                                

WORLAND        CLOUDY    48  35  60 VRB5      29.78F                  
6HR MIN TEMP:  42; 6HR MAX TEMP:  54;                                

SHERIDAN       CLOUDY    48  35  60 CALM      29.73S                  
6HR MIN TEMP:  44; 6HR MAX TEMP:  53;                                

BUFFALO        CLOUDY    62  27  26 W13       29.77R                  
6HR MIN TEMP:  53; 6HR MAX TEMP:  63;                                

GILLETTE       CLOUDY    55  35  47 SW17      29.73R                  
6HR MIN TEMP:  50; 6HR MAX TEMP:  56;                                

HULETT         FAIR      55  32  41 SW9       29.75R                  
NEWCASTLE      FAIR      48  32  53 E15       29.78S                  

$$
WYZ014>020-022>026-101>103-201300-
...CENTRAL WYOMING...
  
CITY           SKY/WX    TMP DP  RH WIND       PRES   REMARKS
BIG PINEY      PTCLDY    30  25  81 N7        29.98F WCI  23          
6HR MIN TEMP:  29; 6HR MAX TEMP:  40;                                

PINEDALE       PTCLDY    28  27  93 CALM      30.00F                  
DUBOIS         FAIR      39  25  56 NW16      29.94S WCI  30          
LANDER         MOCLDY    52  25  35 W7        29.87S                  
6HR MIN TEMP:  50; 6HR MAX TEMP:  62;                                

RIVERTON       CLOUDY    49  30  48 SW6       29.87F                  
6HR MIN TEMP:  48; 6HR MAX TEMP:  55;                                

CASPER         PTCLDY    44  31  60 W7        29.87S                  
6HR MIN TEMP:  44; 6HR MAX TEMP:  52;                                

DOUGLAS        MOCLDY    44  34  67 CALM      29.85S                  
6HR MIN TEMP:  38; 6HR MAX TEMP:  48;                                


$$
WYZ021-027>030-104>119-201300-
...SOUTHERN WYOMING...
  
CITY           SKY/WX    TMP DP  RH WIND       PRES   REMARKS
EVANSTON       MOCLDY    46  22  38 S6        29.97F                  
6HR MIN TEMP:  44; 6HR MAX TEMP:  49;                                

KEMMERER       MOCLDY    32  28  86 N9        29.98S WCI  24          
FORT BRIDGER   NOT AVBL                                               
ROCK SPRINGS   MOCLDY    44  27  51 CALM      29.97F                  
6HR MIN TEMP:  41; 6HR MAX TEMP:  49;                                

DIXON          FAIR      35  25  67 E6        30.03F WCI  30          
RAWLINS        PTCLDY    39  24  55 S7        29.97F WCI  34          
6HR MIN TEMP:  38; 6HR MAX TEMP:  51;                                

SARATOGA       FAIR      36  27  69 E6        30.00F WCI  31          
LARAMIE        MOCLDY    43  22  43 S15       30.00F                  
6HR MIN TEMP:  34; 6HR MAX TEMP:  47;                                

CHEYENNE       MOCLDY    45  28  51 VRB3      29.95F                  
6HR MIN TEMP:  40; 6HR MAX TEMP:  52;                                

TORRINGTON     PTCLDY    36  33  89 CALM      29.84S                  
6HR MIN TEMP:  36; 6HR MAX TEMP:  55;                                

PINE BLUFFS    FAIR      36  32  87 S6        29.92F WCI  31          

$$
  

000
ASUS45 KCYS 201210
RWRWY 

WYOMING REGIONAL WEATHER ROUNDUP
NATIONAL WEATHER SERVICE CHEYENNE WY
600 AM MDT SAT APR 20 2019

NOTE:  "FAIR" INDICATES FEW OR NO CLOUDS BELOW 12,000 FEET
WITH NO SIGNIFICANT WEATHER AND/OR OBSTRUCTIONS TO VISIBILITY.

WYZ001-201300-
YELLOWSTONE NATIONAL PARK
  
CITY           SKY/WX    TMP DP  RH WIND       PRES   REMARKS
LK YELLOWSTONE   N/A     29  26  89 W3        29.98F                  
6HR MIN TEMP:  28; 6HR MAX TEMP:  32;                                

W YELLOWSTONE  NOT AVBL                                               

$$
WYZ002>013-054>058-071-098>099-201300-
NORTHERN WYOMING
  
CITY           SKY/WX    TMP DP  RH WIND       PRES   REMARKS
JACKSON        MOCLDY    34  28  79 NE7       29.93F WCI  28          
CODY           FAIR      58  30  34 W7        29.82S                  
GREYBULL       FAIR      50  31  48 SE6       29.77F                  
6HR MIN TEMP:  49; 6HR MAX TEMP:  58;                                

WORLAND        FAIR      48  35  60 VRB5      29.78F                  
6HR MIN TEMP:  42; 6HR MAX TEMP:  54;                                

SHERIDAN       FAIR      48  35  60 CALM      29.73S                  
6HR MIN TEMP:  44; 6HR MAX TEMP:  53;                                

BUFFALO        FAIR      62  27  26 W13       29.77R                  
6HR MIN TEMP:  53; 6HR MAX TEMP:  63;                                

GILLETTE       FAIR      55  35  47 SW17      29.73R                  
6HR MIN TEMP:  50; 6HR MAX TEMP:  56;                                

HULETT         FAIR      55  32  41 SW9       29.75R                  
NEWCASTLE      FAIR      48  32  53 E15       29.78                   

$$
WYZ014>020-022>026-101>103-201300-
CENTRAL WYOMING
  
CITY           SKY/WX    TMP DP  RH WIND       PRES   REMARKS
BIG PINEY      FAIR      30  25  81 N7        29.98F WCI  23          
6HR MIN TEMP:  29; 6HR MAX TEMP:  40;                                

PINEDALE       FAIR      28  27  93 CALM      30.00F                  
DUBOIS         FAIR      39  25  56 NW16      29.94S WCI  30          
LANDER         FAIR      52  25  35 W7        29.87S                  
6HR MIN TEMP:  50; 6HR MAX TEMP:  62;                                

RIVERTON       FAIR      49  30  48 SW6       29.87F                  
6HR MIN TEMP:  48; 6HR MAX TEMP:  55;                                

CASPER         FAIR      44  31  60 W7        29.87S                  
6HR MIN TEMP:  44; 6HR MAX TEMP:  52;                                

DOUGLAS        FAIR      44  34  67 CALM      29.85S                  
6HR MIN TEMP:  38; 6HR MAX TEMP:  48;                                


$$
WYZ021-027>030-104>119-201300-
SOUTHERN WYOMING
  
CITY           SKY/WX    TMP DP  RH WIND       PRES   REMARKS
EVANSTON       FAIR      46  22  38 S6        29.97F                  
6HR MIN TEMP:  44; 6HR MAX TEMP:  49;                                

KEMMERER       FAIR      32  28  86 N9        29.98S WCI  24          
ROCK SPRINGS   FAIR      44  27  51 CALM      29.97F                  
6HR MIN TEMP:  41; 6HR MAX TEMP:  49;                                

DIXON          FAIR      35  25  67 E6        30.03F WCI  30          
RAWLINS        FAIR      39  24  55 S7        29.97F WCI  34          
6HR MIN TEMP:  38; 6HR MAX TEMP:  51;                                

SARATOGA       FAIR      36  27  69 E6        30.00F WCI  31          
LARAMIE        FAIR      43  22  43 S15       30.00F                  
6HR MIN TEMP:  34; 6HR MAX TEMP:  47;                                

CHEYENNE       FAIR      45  28  51 VRB3      29.95F                  
6HR MIN TEMP:  40; 6HR MAX TEMP:  52;                                

TORRINGTON     FAIR      36  33  89 CALM      29.84S                  
6HR MIN TEMP:  36; 6HR MAX TEMP:  55;                                

PINE BLUFFS    FAIR      36  32  87 S6        29.92F WCI  31          

$$